Regional Weather Roundup
Issued by NWS

Home | Current Version | Previous Version | Graphics & Text | Print | Product List | Glossary On
Versions: 1 2 3 4 5 6 7 8 9 10 11 12 13 14 15 16 17 18 19 20 21 22 23 24 25 26 27 28 29 30 31 32 33 34 35 36 37 38 39 40 41 42 43 44 45 46 47 48 49 50
000
ASUS43 KLMK 291710
RWRKY
KENTUCKY REGIONAL WEATHER ROUNDUP
NATIONAL WEATHER SERVICE LOUISVILLE KY
100 PM EDT SUN MAR 29 2015

NOTE "FAIR" INDICATES FEW OR NO CLOUDS BELOW 12,000 FEET
WITH NO SIGNIFICANT WEATHER AND/OR OBSTRUCTIONS TO VISIBILITY.

KYZ001>023-026-027-061>063-070>075-291800-
WESTERN AND SOUTH CENTRAL KENTUCKY

CITY           SKY/WX    TMP DP  RH WIND       PRES   REMARKS
PADUCAH        MOSUNNY   54  24  31 S12       30.21F
HENDERSON      SUNNY     50  19  29 S14       30.23S
OWENSBORO      SUNNY     49  22  34 S14G23    30.25F
HOPKINSVILLE   SUNNY     53  15  22 SE10      30.24F
BOWLING GREEN  SUNNY     52  13  21 S13G21    30.28F
GLASGOW        SUNNY     51  13  22 S10G16    30.28F
$$

KYZ024-025-028>034-038-045-046-053-291800-
NORTH CENTRAL KENTUCKY

CITY           SKY/WX    TMP DP  RH WIND       PRES   REMARKS
LOUISVILLE/SDF PTSUNNY   48  16  27 S13       30.27F
LOUISVILLE/LOU SUNNY     46  16  30 SE10      30.27F
FORT KNOX      SUNNY     47  16  28 S14       30.25F
$$

KYZ035>037-039>044-047>052-055>060-089>105-291800-
NORTHEAST KENTUCKY

CITY           SKY/WX    TMP DP  RH WIND       PRES   REMARKS
LEXINGTON      SUNNY     46  13  26 S13       30.29F
COVINGTON      PTSUNNY   44  17  33 S20       30.26F
FRANKFORT      SUNNY     46  15  28 S7        30.29S
$$

KYZ054-064>069-076>088-106>120-291800-
SOUTHEAST KENTUCKY

CITY           SKY/WX    TMP DP  RH WIND       PRES   REMARKS
JACKSON        SUNNY     45   7  21 VRB5      30.29F
LONDON         SUNNY     47   8  20 S7G18     30.29F
SOMERSET       SUNNY     46  12  25 S8G16     30.31F
MIDDLESBORO    SUNNY     46  14  27 S5        30.32F
MONTICELLO     SUNNY     51  11  20 S7        30.31F
$$



USA.gov is the U.S. government's official web portal to all federal, state and local government web resources and services.